| time (UTC) | temp C | wind direction | speed KPH | gust KPH | rain 1hr cm | rain 24hr cm | rain mn cm | humidity % | barometer mb |
| 20260508214712 | 22 | 169 | 6.4 | 11.3 | 0.00 | 0.00 | 0.00 | 26 | 1001.6 |
| 20260508214205 | 22 | 195 | 6.4 | 11.3 | 0.00 | 0.00 | 0.00 | 29 | 1001.8 |
| 20260508213700 | 22 | 146 | 6.4 | 14.5 | 0.00 | 0.00 | 0.00 | 26 | 1001.8 |
| 20260508213153 | 22 | 164 | 8.0 | 16.1 | 0.00 | 0.00 | 0.00 | 28 | 1001.9 |
| 20260508212648 | 22 | 137 | 9.7 | 17.7 | 0.00 | 0.00 | 0.00 | 25 | 1002.0 |
| 20260508212142 | 22 | 102 | 8.0 | 17.7 | 0.00 | 0.00 | 0.00 | 26 | 1002.0 |
| 20260508211908 | 23 | 154 | 8.0 | 17.7 | 0.00 | 0.00 | 0.00 | 25 | 1002.0 |
| 20260508211130 | 22 | 252 | 9.7 | 17.7 | 0.00 | 0.00 | 0.00 | 27 | 1002.0 |
| 20260508210854 | 22 | 198 | 8.0 | 17.7 | 0.00 | 0.00 | 0.00 | 28 | 1002.0 |
| 20260508210118 | 22 | 174 | 8.0 | 17.7 | 0.00 | 0.00 | 0.00 | 26 | 1002.2 |
| 20260508205618 | 22 | 174 | 9.7 | 19.3 | 0.00 | 0.00 | 0.00 | 28 | 1002.2 |
| 20260508205118 | 22 | 200 | 9.7 | 19.3 | 0.00 | 0.00 | 0.00 | 25 | 1002.3 |
| 20260508204618 | 22 | 165 | 8.0 | 14.5 | 0.00 | 0.00 | 0.00 | 26 | 1002.4 |
| 20260508204118 | 21 | 141 | 6.4 | 16.1 | 0.00 | 0.00 | 0.00 | 27 | 1002.6 |
| 20260508203618 | 21 | 208 | 4.8 | 16.1 | 0.00 | 0.00 | 0.00 | 28 | 1002.6 |
| 20260508203118 | 21 | 208 | 6.4 | 14.5 | 0.00 | 0.00 | 0.00 | 28 | 1002.7 |
| 20260508202618 | 22 | 297 | 6.4 | 14.5 | 0.00 | 0.00 | 0.00 | 28 | 1002.8 |
| 20260508202119 | 22 | 173 | 6.4 | 19.3 | 0.00 | 0.00 | 0.00 | 29 | 1002.8 |
| 20260508201616 | 21 | 157 | 9.7 | 19.3 | 0.00 | 0.00 | 0.00 | 29 | 1003.0 |
| 20260508201124 | 22 | 217 | 6.4 | 22.5 | 0.00 | 0.00 | 0.00 | 25 | 1003.1 |
| 20260508201118 | 22 | 177 | 9.7 | 22.5 | 0.00 | 0.00 | 0.00 | 26 | 1003.1 |
| 20260508200118 | 22 | 23 | 4.8 | 16.1 | 0.00 | 0.00 | 0.00 | 28 | 1003.2 |
| 20260508195617 | 22 | 217 | 6.4 | 16.1 | 0.00 | 0.00 | 0.00 | 26 | 1003.2 |
| 20260508195350 | 22 | 325 | 9.7 | 17.7 | 0.00 | 0.00 | 0.00 | 27 | 1003.2 |
| 20260508194617 | 22 | 142 | 8.0 | 17.7 | 0.00 | 0.00 | 0.00 | 28 | 1003.3 |
| 20260508194118 | 21 | 170 | 6.4 | 17.7 | 0.00 | 0.00 | 0.00 | 30 | 1003.4 |
| 20260508193612 | 21 | 139 | 4.8 | 11.3 | 0.00 | 0.00 | 0.00 | 26 | 1003.5 |
| 20260508193106 | 21 | 198 | 4.8 | 11.3 | 0.00 | 0.00 | 0.00 | 27 | 1003.6 |
| 20260508192604 | 21 | 293 | 6.4 | 14.5 | 0.00 | 0.00 | 0.00 | 27 | 1003.6 |
| 20260508192050 | 21 | 198 | 6.4 | 14.5 | 0.00 | 0.00 | 0.00 | 30 | 1003.8 |
| 20260508191543 | 21 | 167 | 6.4 | 14.5 | 0.00 | 0.00 | 0.00 | 31 | 1003.8 |
| 20260508191038 | 20 | 219 | 4.8 | 12.9 | 0.00 | 0.00 | 0.00 | 29 | 1003.9 |
| 20260508190532 | 20 | 141 | 3.2 | 12.9 | 0.00 | 0.00 | 0.00 | 30 | 1004.0 |
| 20260508190033 | 21 | 214 | 6.4 | 14.5 | 0.00 | 0.00 | 0.00 | 28 | 1004.0 |
| 20260508185805 | 21 | 153 | 6.4 | 16.1 | 0.00 | 0.00 | 0.00 | 27 | 1004.1 |
| 20260508185032 | 21 | 139 | 3.2 | 16.1 | 0.00 | 0.00 | 0.00 | 28 | 1004.1 |
| 20260508184531 | 21 | 112 | 1.6 | 6.4 | 0.00 | 0.00 | 0.00 | 28 | 1004.3 |
| 20260508184032 | 21 | 314 | 3.2 | 8.0 | 0.00 | 0.00 | 0.00 | 27 | 1004.3 |
| 20260508183528 | 21 | 157 | 4.8 | 12.9 | 0.00 | 0.00 | 0.00 | 33 | 1004.4 |
| 20260508183032 | 21 | 266 | 3.2 | 12.9 | 0.00 | 0.00 | 0.00 | 29 | 1004.4 |
| 20260508182530 | 21 | 179 | 1.6 | 11.3 | 0.00 | 0.00 | 0.00 | 28 | 1004.5 |
| 20260508182027 | 20 | 152 | 1.6 | 8.0 | 0.00 | 0.00 | 0.00 | 29 | 1004.5 |
| 20260508181527 | 20 | 105 | 3.2 | 11.3 | 0.00 | 0.00 | 0.00 | 29 | 1004.6 |
| 20260508181029 | 21 | 91 | 3.2 | 14.5 | 0.00 | 0.00 | 0.00 | 29 | 1004.6 |
| 20260508180526 | 21 | 201 | 4.8 | 14.5 | 0.00 | 0.00 | 0.00 | 28 | 1004.7 |
| 20260508180257 | 21 | 148 | 4.8 | 12.9 | 0.00 | 0.00 | 0.00 | 29 | 1004.7 |
| 20260508175526 | 21 | 141 | 6.4 | 14.5 | 0.00 | 0.00 | 0.00 | 29 | 1004.8 |
| 20260508175026 | 20 | 204 | 6.4 | 14.5 | 0.00 | 0.00 | 0.00 | 29 | 1005.0 |
| 20260508174526 | 20 | 224 | 3.2 | 11.3 | 0.00 | 0.00 | 0.00 | 29 | 1005.0 |
| 20260508174019 | 20 | 160 | 3.2 | 12.9 | 0.00 | 0.00 | 0.00 | 30 | 1005.1 |
| 20260508173513 | 20 | 93 | 6.4 | 16.1 | 0.00 | 0.00 | 0.00 | 30 | 1005.2 |
| 20260508173008 | 20 | 152 | 4.8 | 16.1 | 0.00 | 0.00 | 0.00 | 30 | 1005.3 |
| 20260508172502 | 20 | 94 | 4.8 | 16.1 | 0.00 | 0.00 | 0.00 | 32 | 1005.4 |
| 20260508171956 | 20 | 156 | 6.4 | 14.5 | 0.00 | 0.00 | 0.00 | 29 | 1005.7 |
| 20260508171450 | 20 | 139 | 4.8 | 14.5 | 0.00 | 0.00 | 0.00 | 31 | 1005.7 |
| 20260508170944 | 19 | 158 | 6.4 | 12.9 | 0.00 | 0.00 | 0.00 | 34 | 1005.7 |
| 20260508170438 | 19 | 165 | 4.8 | 11.3 | 0.00 | 0.00 | 0.00 | 31 | 1005.8 |
| 20260508165938 | 19 | 191 | 4.8 | 11.3 | 0.00 | 0.00 | 0.00 | 32 | 1005.9 |
| 20260508165436 | 18 | 167 | 3.2 | 11.3 | 0.00 | 0.00 | 0.00 | 33 | 1005.9 |
| 20260508164938 | 18 | 231 | 1.6 | 4.8 | 0.00 | 0.00 | 0.00 | 33 | 1006.0 |
| 20260508164437 | 17 | 204 | 3.2 | 6.4 | 0.00 | 0.00 | 0.00 | 34 | 1006.1 |
| 20260508163937 | 17 | 215 | 3.2 | 8.0 | 0.00 | 0.00 | 0.00 | 37 | 1006.2 |
| 20260508163436 | 17 | 234 | 4.8 | 9.7 | 0.00 | 0.00 | 0.00 | 37 | 1006.3 |
| 20260508162938 | 17 | 212 | 4.8 | 9.7 | 0.00 | 0.00 | 0.00 | 36 | 1006.3 |
| 20260508162707 | 17 | 191 | 4.8 | 11.3 | 0.00 | 0.00 | 0.00 | 37 | 1006.3 |
| 20260508161934 | 17 | 156 | 4.8 | 11.3 | 0.00 | 0.00 | 0.00 | 37 | 1006.3 |
| 20260508161432 | 16 | 214 | 4.8 | 9.7 | 0.00 | 0.00 | 0.00 | 39 | 1006.3 |
| 20260508160934 | 16 | 212 | 4.8 | 12.9 | 0.00 | 0.00 | 0.00 | 41 | 1006.4 |
| 20260508160702 | 16 | 197 | 4.8 | 12.9 | 0.00 | 0.00 | 0.00 | 40 | 1006.4 |
| 20260508155930 | 15 | 141 | 4.8 | 11.3 | 0.00 | 0.00 | 0.00 | 39 | 1006.5 |
| 20260508155432 | 15 | 204 | 4.8 | 11.3 | 0.00 | 0.00 | 0.00 | 42 | 1006.5 |
| 20260508154931 | 14 | 190 | 3.2 | 11.3 | 0.00 | 0.00 | 0.00 | 42 | 1006.6 |
| 20260508154431 | 14 | 183 | 3.2 | 6.4 | 0.00 | 0.00 | 0.00 | 44 | 1006.7 |
| 20260508154200 | 14 | 224 | 3.2 | 8.0 | 0.00 | 0.00 | 0.00 | 44 | 1006.7 |
| 20260508153429 | 13 | 208 | 3.2 | 8.0 | 0.00 | 0.00 | 0.00 | 44 | 1006.8 |
| 20260508152930 | 13 | 205 | 3.2 | 8.0 | 0.00 | 0.00 | 0.00 | 44 | 1006.8 |
| 20260508152431 | 13 | 184 | 3.2 | 8.0 | 0.00 | 0.00 | 0.00 | 44 | 1006.9 |
| 20260508151931 | 13 | 233 | 3.2 | 8.0 | 0.00 | 0.00 | 0.00 | 45 | 1006.9 |
| 20260508151433 | 13 | 126 | 3.2 | 8.0 | 0.00 | 0.00 | 0.00 | 44 | 1006.9 |
| 20260508150929 | 13 | 176 | 3.2 | 8.0 | 0.00 | 0.00 | 0.00 | 48 | 1007.0 |
| 20260508150434 | 12 | 173 | 1.6 | 4.8 | 0.00 | 0.00 | 0.00 | 49 | 1007.2 |
| 20260508150427 | 12 | 151 | 1.6 | 6.4 | 0.00 | 0.00 | 0.00 | 46 | 1007.0 |
| 20260508145425 | 12 | 153 | 1.6 | 4.8 | 0.00 | 0.00 | 0.00 | 48 | 1007.1 |
| 20260508144926 | 12 | 207 | 1.6 | 4.8 | 0.00 | 0.00 | 0.00 | 47 | 1007.3 |
| 20260508144424 | 12 | 224 | 1.6 | 4.8 | 0.00 | 0.00 | 0.00 | 49 | 1007.4 |
| 20260508143925 | 12 | 189 | 1.6 | 6.4 | 0.00 | 0.00 | 0.00 | 48 | 1007.4 |
| 20260508143425 | 11 | 194 | 1.6 | 6.4 | 0.00 | 0.00 | 0.00 | 50 | 1007.4 |
| 20260508142924 | 11 | 211 | 0.0 | 6.4 | 0.00 | 0.00 | 0.00 | 49 | 1007.6 |
| 20260508142426 | 11 | 217 | 1.6 | 6.4 | 0.00 | 0.00 | 0.00 | 53 | 1007.5 |
| 20260508141926 | 11 | 211 | 1.6 | 6.4 | 0.00 | 0.00 | 0.00 | 53 | 1007.5 |
| 20260508141654 | 10 | 162 | 1.6 | 6.4 | 0.00 | 0.00 | 0.00 | 51 | 1007.6 |
| 20260508140923 | 10 | 221 | 0.0 | 4.8 | 0.00 | 0.00 | 0.00 | 52 | 1007.6 |
| 20260508140422 | 10 | 214 | 0.0 | 6.4 | 0.00 | 0.00 | 0.00 | 51 | 1007.7 |
| 20260508135923 | 10 | 159 | 0.0 | 6.4 | 0.00 | 0.00 | 0.00 | 50 | 1007.7 |
| 20260508135422 | 10 | 205 | 0.0 | 3.2 | 0.00 | 0.00 | 0.00 | 52 | 1007.7 |
| 20260508134923 | 9 | 194 | 0.0 | 3.2 | 0.00 | 0.00 | 0.00 | 55 | 1007.8 |
| 20260508134654 | 9 | 160 | 0.0 | 3.2 | 0.00 | 0.00 | 0.00 | 55 | 1007.9 |
| 20260508133924 | 8 | 232 | 0.0 | 3.2 | 0.00 | 0.00 | 0.00 | 57 | 1007.8 |
| 20260508133420 | 8 | 173 | 0.0 | 3.2 | 0.00 | 0.00 | 0.00 | 59 | 1007.9 |
| 20260508132920 | 8 | 197 | 0.0 | 3.2 | 0.00 | 0.00 | 0.00 | 63 | 1007.9 |
| 20260508132651 | 7 | 231 | 0.0 | 3.2 | 0.00 | 0.00 | 0.00 | 63 | 1008.0 |
| 20260508131920 | 6 | 162 | 0.0 | 0.0 | 0.00 | 0.00 | 0.00 | 69 | 1007.9 |
| 20260508131418 | 5 | 150 | 0.0 | 0.0 | 0.00 | 0.00 | 0.00 | 70 | 1008.0 |
| 20260508131149 | 5 | 176 | 0.0 | 0.0 | 0.00 | 0.00 | 0.00 | 72 | 1008.0 |
| 20260508130419 | 3 | 162 | 0.0 | 0.0 | 0.00 | 0.00 | 0.00 | 78 | 1008.0 |
| 20260508125919 | 2 | 163 | 0.0 | 0.0 | 0.00 | 0.00 | 0.00 | 88 | 1008.0 |
| 20260508125420 | 2 | 163 | 0.0 | 0.0 | 0.00 | 0.00 | 0.00 | 92 | 1008.1 |
| 20260508124916 | 1 | 163 | 0.0 | 0.0 | 0.00 | 0.00 | 0.00 | 92 | 1008.1 |
| 20260508124416 | 1 | 164 | 0.0 | 0.0 | 0.00 | 0.00 | 0.00 | 92 | 1008.1 |
| 20260508123914 | 1 | 163 | 0.0 | 0.0 | 0.00 | 0.00 | 0.00 | 92 | 1008.0 |
| 20260508123415 | 1 | 163 | 0.0 | 0.0 | 0.00 | 0.00 | 0.00 | 92 | 1008.0 |
| 20260508122915 | 0 | 163 | 0.0 | 0.0 | 0.00 | 0.00 | 0.00 | 93 | 1008.0 |
| 20260508122416 | 0 | 163 | 0.0 | 0.0 | 0.00 | 0.00 | 0.00 | 93 | 1008.0 |
| 20260508121916 | 0 | 163 | 0.0 | 0.0 | 0.00 | 0.00 | 0.00 | 93 | 1008.0 |
| 20260508121414 | 0 | 163 | 0.0 | 0.0 | 0.00 | 0.00 | 0.00 | 93 | 1008.0 |
| 20260508120915 | 0 | 163 | 0.0 | 0.0 | 0.00 | 0.00 | 0.00 | 92 | 1008.0 |
| 20260508120644 | 0 | 163 | 0.0 | 0.0 | 0.00 | 0.00 | 0.00 | 92 | 1008.0 |
| 20260508120141 | 0 | 163 | 0.0 | 0.0 | 0.00 | 0.00 | 0.00 | 92 | 1008.0 |
| 20260508115410 | 0 | 163 | 0.0 | 0.0 | 0.00 | 0.00 | 0.00 | 92 | 1008.0 |
| 20260508114911 | 0 | 163 | 0.0 | 0.0 | 0.00 | 0.00 | 0.00 | 92 | 1007.9 |
| 20260508114410 | 0 | 163 | 0.0 | 0.0 | 0.00 | 0.00 | 0.00 | 92 | 1007.9 |
| 20260508113912 | 0 | 163 | 0.0 | 0.0 | 0.00 | 0.00 | 0.00 | 92 | 1007.8 |
| 20260508113411 | -1 | 141 | 0.0 | 0.0 | 0.00 | 0.00 | 0.00 | 92 | 1007.8 |
| 20260508112912 | 0 | 141 | 0.0 | 0.0 | 0.00 | 0.00 | 0.00 | 92 | 1007.8 |
| 20260508112412 | 0 | 141 | 0.0 | 0.0 | 0.00 | 0.00 | 0.00 | 92 | 1007.7 |
| 20260508111908 | -1 | 141 | 0.0 | 0.0 | 0.00 | 0.00 | 0.00 | 93 | 1007.7 |
| 20260508111638 | -1 | 141 | 0.0 | 0.0 | 0.00 | 0.00 | 0.00 | 93 | 1007.7 |
| 20260508110908 | -1 | 166 | 0.0 | 0.0 | 0.00 | 0.00 | 0.00 | 92 | 1007.7 |
| 20260508110640 | -1 | 166 | 0.0 | 0.0 | 0.00 | 0.00 | 0.00 | 92 | 1007.8 |
| 20260508105908 | -1 | 166 | 0.0 | 0.0 | 0.00 | 0.00 | 0.00 | 92 | 1007.8 |
| 20260508105407 | -1 | 166 | 0.0 | 0.0 | 0.00 | 0.00 | 0.00 | 92 | 1007.8 |
| 20260508105143 | -1 | 166 | 0.0 | 0.0 | 0.00 | 0.00 | 0.00 | 91 | 1007.7 |
| 20260508104908 | -1 | 166 | 0.0 | 0.0 | 0.00 | 0.00 | 0.00 | 92 | 1007.7 |
| 20260508103907 | -1 | 166 | 0.0 | 0.0 | 0.00 | 0.00 | 0.00 | 91 | 1007.8 |
| 20260508103406 | -1 | 166 | 0.0 | 0.0 | 0.00 | 0.00 | 0.00 | 91 | 1007.8 |
| 20260508102907 | -1 | 166 | 0.0 | 0.0 | 0.00 | 0.00 | 0.00 | 91 | 1007.8 |
| 20260508102406 | -1 | 166 | 0.0 | 0.0 | 0.00 | 0.00 | 0.00 | 90 | 1007.8 |
| 20260508101908 | -1 | 166 | 0.0 | 0.0 | 0.00 | 0.00 | 0.00 | 90 | 1007.8 |
| 20260508101406 | -1 | 166 | 0.0 | 0.0 | 0.00 | 0.00 | 0.00 | 90 | 1007.9 |
| 20260508100906 | -1 | 150 | 0.0 | 0.0 | 0.00 | 0.00 | 0.00 | 90 | 1007.9 |
| 20260508100407 | 0 | 150 | 0.0 | 0.0 | 0.00 | 0.00 | 0.00 | 89 | 1007.9 |
| 20260508100140 | 0 | 150 | 0.0 | 0.0 | 0.00 | 0.00 | 0.00 | 88 | 1007.8 |
| 20260508095406 | 0 | 150 | 0.0 | 0.0 | 0.00 | 0.00 | 0.00 | 88 | 1007.8 |
| 20260508094907 | 0 | 150 | 0.0 | 0.0 | 0.00 | 0.00 | 0.00 | 89 | 1007.8 |
| 20260508094406 | 0 | 150 | 0.0 | 0.0 | 0.00 | 0.00 | 0.00 | 89 | 1007.8 |
| 20260508093907 | 0 | 150 | 0.0 | 0.0 | 0.00 | 0.00 | 0.00 | 88 | 1007.8 |
| 20260508093408 | 0 | 150 | 0.0 | 0.0 | 0.00 | 0.00 | 0.00 | 87 | 1007.8 |
| 20260508092907 | 0 | 150 | 0.0 | 0.0 | 0.00 | 0.00 | 0.00 | 87 | 1007.7 |
| 20260508092407 | 0 | 150 | 0.0 | 0.0 | 0.00 | 0.00 | 0.00 | 86 | 1007.7 |
| 20260508091909 | 0 | 150 | 0.0 | 0.0 | 0.00 | 0.00 | 0.00 | 87 | 1007.7 |
| 20260508091407 | 0 | 150 | 0.0 | 0.0 | 0.00 | 0.00 | 0.00 | 87 | 1007.7 |
| 20260508090905 | 0 | 150 | 0.0 | 0.0 | 0.00 | 0.00 | 0.00 | 87 | 1007.7 |
| 20260508090637 | 0 | 150 | 0.0 | 0.0 | 0.00 | 0.00 | 0.00 | 86 | 1007.8 |
| 20260508085906 | 0 | 150 | 0.0 | 0.0 | 0.00 | 0.00 | 0.00 | 84 | 1007.8 |
| 20260508085405 | 1 | 150 | 0.0 | 0.0 | 0.00 | 0.00 | 0.00 | 82 | 1007.8 |
| 20260508084903 | 1 | 150 | 0.0 | 0.0 | 0.00 | 0.00 | 0.00 | 82 | 1007.8 |
| 20260508084402 | 1 | 150 | 0.0 | 0.0 | 0.00 | 0.00 | 0.00 | 82 | 1007.7 |
| 20260508083902 | 2 | 150 | 0.0 | 0.0 | 0.00 | 0.00 | 0.00 | 81 | 1007.8 |
| 20260508083404 | 2 | 150 | 0.0 | 0.0 | 0.00 | 0.00 | 0.00 | 80 | 1007.7 |
| 20260508082900 | 2 | 150 | 0.0 | 0.0 | 0.00 | 0.00 | 0.00 | 79 | 1007.8 |
| 20260508082355 | 2 | 150 | 0.0 | 0.0 | 0.00 | 0.00 | 0.00 | 79 | 1007.8 |
| 20260508082125 | 2 | 150 | 0.0 | 0.0 | 0.00 | 0.00 | 0.00 | 80 | 1007.8 |
| 20260508081353 | 2 | 150 | 0.0 | 0.0 | 0.00 | 0.00 | 0.00 | 79 | 1007.9 |
| 20260508081125 | 2 | 151 | 0.0 | 0.0 | 0.00 | 0.00 | 0.00 | 78 | 1007.8 |
| 20260508080352 | 2 | 150 | 0.0 | 0.0 | 0.00 | 0.00 | 0.00 | 78 | 1007.9 |
| 20260508080123 | 2 | 150 | 0.0 | 0.0 | 0.00 | 0.00 | 0.00 | 79 | 1007.9 |
| 20260508075618 | 2 | 150 | 0.0 | 0.0 | 0.00 | 0.00 | 0.00 | 79 | 1007.9 |
| 20260508074847 | 2 | 150 | 0.0 | 0.0 | 0.00 | 0.00 | 0.00 | 77 | 1007.9 |
| 20260508074346 | 2 | 150 | 0.0 | 0.0 | 0.00 | 0.00 | 0.00 | 76 | 1007.9 |
| 20260508073848 | 2 | 150 | 0.0 | 0.0 | 0.00 | 0.00 | 0.00 | 76 | 1008.0 |
| 20260508073342 | 3 | 150 | 0.0 | 0.0 | 0.00 | 0.00 | 0.00 | 76 | 1008.0 |
| 20260508072836 | 3 | 150 | 0.0 | 0.0 | 0.00 | 0.00 | 0.00 | 76 | 1008.0 |
| 20260508072604 | 3 | 150 | 0.0 | 0.0 | 0.00 | 0.00 | 0.00 | 75 | 1008.0 |
| 20260508071830 | 3 | 150 | 0.0 | 0.0 | 0.00 | 0.00 | 0.00 | 76 | 1008.1 |
| 20260508071329 | 2 | 150 | 0.0 | 0.0 | 0.00 | 0.00 | 0.00 | 76 | 1008.1 |
| 20260508070826 | 3 | 150 | 0.0 | 0.0 | 0.00 | 0.00 | 0.00 | 77 | 1008.2 |
| 20260508070326 | 3 | 150 | 0.0 | 0.0 | 0.00 | 0.00 | 0.00 | 75 | 1008.2 |
| 20260508065825 | 3 | 151 | 0.0 | 0.0 | 0.00 | 0.00 | 0.00 | 75 | 1008.1 |
| 20260508065326 | 3 | 150 | 0.0 | 0.0 | 0.00 | 0.00 | 0.00 | 76 | 1008.2 |
| 20260508064823 | 3 | 150 | 0.0 | 0.0 | 0.00 | 0.00 | 0.00 | 77 | 1008.2 |
| 20260508064321 | 2 | 150 | 0.0 | 0.0 | 0.00 | 0.00 | 0.00 | 79 | 1008.2 |
| 20260508063818 | 2 | 150 | 0.0 | 0.0 | 0.00 | 0.00 | 0.00 | 82 | 1008.2 |
| 20260508063548 | 1 | 150 | 0.0 | 0.0 | 0.00 | 0.00 | 0.00 | 82 | 1008.3 |
| 20260508062814 | 1 | 150 | 0.0 | 0.0 | 0.00 | 0.00 | 0.00 | 82 | 1008.3 |
| 20260508062314 | 1 | 150 | 0.0 | 0.0 | 0.00 | 0.00 | 0.00 | 80 | 1008.3 |
| 20260508061814 | 1 | 150 | 0.0 | 0.0 | 0.00 | 0.00 | 0.00 | 80 | 1008.4 |
| 20260508061309 | 2 | 150 | 0.0 | 0.0 | 0.00 | 0.00 | 0.00 | 79 | 1008.4 |
| 20260508060807 | 2 | 150 | 0.0 | 0.0 | 0.00 | 0.00 | 0.00 | 78 | 1008.4 |
| 20260508060308 | 2 | 150 | 0.0 | 0.0 | 0.00 | 0.00 | 0.00 | 76 | 1008.4 |
| 20260508055806 | 2 | 150 | 0.0 | 0.0 | 0.00 | 0.00 | 0.00 | 75 | 1008.5 |
| 20260508055306 | 3 | 150 | 0.0 | 0.0 | 0.00 | 0.00 | 0.00 | 74 | 1008.5 |
| 20260508055039 | 3 | 150 | 0.0 | 0.0 | 0.00 | 0.00 | 0.00 | 74 | 1008.6 |
| 20260508054305 | 3 | 150 | 0.0 | 0.0 | 0.00 | 0.00 | 0.00 | 75 | 1008.6 |
| 20260508053758 | 2 | 150 | 0.0 | 0.0 | 0.00 | 0.00 | 0.00 | 76 | 1008.6 |
| 20260508053250 | 2 | 150 | 0.0 | 0.0 | 0.00 | 0.00 | 0.00 | 74 | 1008.7 |
| 20260508052745 | 3 | 150 | 0.0 | 0.0 | 0.00 | 0.00 | 0.00 | 73 | 1008.7 |
| 20260508052510 | 3 | 150 | 0.0 | 0.0 | 0.00 | 0.00 | 0.00 | 73 | 1008.7 |
| 20260508051732 | 3 | 150 | 0.0 | 0.0 | 0.00 | 0.00 | 0.00 | 71 | 1008.7 |
| 20260508051227 | 3 | 150 | 0.0 | 0.0 | 0.00 | 0.00 | 0.00 | 70 | 1008.7 |
| 20260508050721 | 4 | 150 | 0.0 | 0.0 | 0.00 | 0.00 | 0.00 | 70 | 1008.7 |
| 20260508050214 | 4 | 150 | 0.0 | 0.0 | 0.00 | 0.00 | 0.00 | 68 | 1008.7 |
| 20260508045708 | 4 | 150 | 0.0 | 0.0 | 0.00 | 0.00 | 0.00 | 69 | 1008.8 |
| 20260508045201 | 4 | 150 | 0.0 | 0.0 | 0.00 | 0.00 | 0.00 | 70 | 1008.8 |
| 20260508044656 | 4 | 150 | 0.0 | 0.0 | 0.00 | 0.00 | 0.00 | 69 | 1008.8 |
| 20260508044421 | 4 | 150 | 0.0 | 0.0 | 0.00 | 0.00 | 0.00 | 70 | 1008.8 |
| 20260508044313 | 3 | 150 | 0.0 | 0.0 | 0.00 | 0.00 | 0.00 | 71 | 1008.8 |
| 20260508043147 | 3 | 150 | 0.0 | 0.0 | 0.00 | 0.00 | 0.00 | 72 | 1008.9 |
| 20260508042646 | 3 | 150 | 0.0 | 0.0 | 0.00 | 0.00 | 0.00 | 73 | 1009.0 |
| 20260508042143 | 3 | 150 | 0.0 | 0.0 | 0.00 | 0.00 | 0.00 | 74 | 1008.9 |
| 20260508041641 | 3 | 150 | 0.0 | 0.0 | 0.00 | 0.00 | 0.00 | 72 | 1008.9 |
| 20260508041142 | 3 | 150 | 0.0 | 0.0 | 0.00 | 0.00 | 0.00 | 71 | 1008.9 |
| 20260508040642 | 3 | 150 | 0.0 | 0.0 | 0.00 | 0.00 | 0.00 | 71 | 1009.0 |
| 20260508040140 | 3 | 150 | 0.0 | 0.0 | 0.00 | 0.00 | 0.00 | 70 | 1009.0 |
| 20260508035638 | 4 | 150 | 0.0 | 0.0 | 0.00 | 0.00 | 0.00 | 68 | 1009.1 |
| 20260508035136 | 4 | 150 | 0.0 | 0.0 | 0.00 | 0.00 | 0.00 | 66 | 1009.1 |
| 20260508034638 | 5 | 150 | 0.0 | 0.0 | 0.00 | 0.00 | 0.00 | 66 | 1009.1 |
| 20260508034138 | 5 | 150 | 0.0 | 0.0 | 0.00 | 0.00 | 0.00 | 65 | 1009.2 |
| 20260508033637 | 5 | 150 | 0.0 | 0.0 | 0.00 | 0.00 | 0.00 | 64 | 1009.2 |
| 20260508033136 | 5 | 150 | 0.0 | 0.0 | 0.00 | 0.00 | 0.00 | 63 | 1009.3 |
| 20260508032634 | 6 | 150 | 0.0 | 0.0 | 0.00 | 0.00 | 0.00 | 63 | 1009.3 |
| 20260508032403 | 6 | 151 | 0.0 | 0.0 | 0.00 | 0.00 | 0.00 | 61 | 1009.2 |
| 20260508031633 | 6 | 150 | 0.0 | 0.0 | 0.00 | 0.00 | 0.00 | 61 | 1009.2 |
| 20260508031404 | 6 | 150 | 0.0 | 0.0 | 0.00 | 0.00 | 0.00 | 61 | 1009.3 |
| 20260508030636 | 6 | 150 | 0.0 | 0.0 | 0.00 | 0.00 | 0.00 | 60 | 1009.3 |
| 20260508030131 | 6 | 151 | 0.0 | 0.0 | 0.00 | 0.00 | 0.00 | 58 | 1009.3 |
| 20260508025625 | 7 | 150 | 0.0 | 0.0 | 0.00 | 0.00 | 0.00 | 58 | 1009.3 |
| 20260508025119 | 7 | 151 | 0.0 | 0.0 | 0.00 | 0.00 | 0.00 | 56 | 1009.3 |
| 20260508024614 | 7 | 150 | 0.0 | 0.0 | 0.00 | 0.00 | 0.00 | 54 | 1009.2 |
| 20260508024107 | 7 | 150 | 0.0 | 0.0 | 0.00 | 0.00 | 0.00 | 53 | 1009.3 |
| 20260508023600 | 7 | 150 | 0.0 | 0.0 | 0.00 | 0.00 | 0.00 | 53 | 1009.2 |
| 20260508023325 | 8 | 150 | 0.0 | 0.0 | 0.00 | 0.00 | 0.00 | 52 | 1009.2 |
| 20260508022819 | 8 | 150 | 0.0 | 0.0 | 0.00 | 0.00 | 0.00 | 52 | 1009.2 |
| 20260508022043 | 8 | 150 | 0.0 | 0.0 | 0.00 | 0.00 | 0.00 | 50 | 1009.1 |
| 20260508021536 | 8 | 150 | 0.0 | 0.0 | 0.00 | 0.00 | 0.00 | 49 | 1009.1 |
| 20260508021302 | 8 | 150 | 0.0 | 0.0 | 0.00 | 0.00 | 0.00 | 48 | 1009.0 |
| 20260508020524 | 8 | 153 | 0.0 | 0.0 | 0.00 | 0.00 | 0.00 | 49 | 1009.0 |
| 20260508020018 | 8 | 151 | 0.0 | 0.0 | 0.00 | 0.00 | 0.00 | 49 | 1009.0 |
| 20260508015513 | 8 | 150 | 0.0 | 0.0 | 0.00 | 0.00 | 0.00 | 49 | 1008.9 |
| 20260508015007 | 8 | 150 | 0.0 | 0.0 | 0.00 | 0.00 | 0.00 | 48 | 1008.9 |
| 20260508014501 | 9 | 150 | 0.0 | 0.0 | 0.00 | 0.00 | 0.00 | 48 | 1008.8 |
| 20260508014226 | 9 | 150 | 0.0 | 0.0 | 0.00 | 0.00 | 0.00 | 48 | 1008.8 |
| 20260508013449 | 10 | 151 | 0.0 | 0.0 | 0.00 | 0.00 | 0.00 | 46 | 1008.8 |
| 20260508012943 | 10 | 151 | 0.0 | 0.0 | 0.00 | 0.00 | 0.00 | 44 | 1008.8 |
| 20260508012437 | 10 | 151 | 0.0 | 0.0 | 0.00 | 0.00 | 0.00 | 44 | 1008.8 |
| 20260508011930 | 11 | 151 | 0.0 | 0.0 | 0.00 | 0.00 | 0.00 | 43 | 1008.7 |
| 20260508011425 | 11 | 153 | 0.0 | 0.0 | 0.00 | 0.00 | 0.00 | 46 | 1008.7 |
| 20260508010918 | 11 | 153 | 0.0 | 1.6 | 0.00 | 0.00 | 0.00 | 43 | 1008.6 |
| 20260508010413 | 12 | 153 | 0.0 | 1.6 | 0.00 | 0.00 | 0.00 | 43 | 1008.6 |
| 20260508005907 | 12 | 186 | 0.0 | 3.2 | 0.00 | 0.00 | 0.00 | 40 | 1008.6 |
| 20260508005401 | 12 | 176 | 1.6 | 4.8 | 0.00 | 0.00 | 0.00 | 38 | 1008.7 |
| 20260508004854 | 12 | 183 | 1.6 | 8.0 | 0.00 | 0.00 | 0.00 | 38 | 1008.6 |
| 20260508004619 | 12 | 211 | 3.2 | 8.0 | 0.00 | 0.00 | 0.00 | 38 | 1008.6 |
| 20260508003843 | 13 | 194 | 3.2 | 9.7 | 0.00 | 0.00 | 0.00 | 37 | 1008.6 |
| 20260508003336 | 13 | 197 | 4.8 | 9.7 | 0.00 | 0.00 | 0.00 | 35 | 1008.6 |
| 20260508003101 | 13 | 132 | 3.2 | 9.7 | 0.00 | 0.00 | 0.00 | 35 | 1008.7 |
| 20260508002324 | 13 | 203 | 1.6 | 8.0 | 0.00 | 0.00 | 0.00 | 36 | 1008.7 |
| 20260508001818 | 14 | 146 | 1.6 | 6.4 | 0.00 | 0.00 | 0.00 | 35 | 1008.7 |
| 20260508001313 | 14 | 203 | 3.2 | 9.7 | 0.00 | 0.00 | 0.00 | 36 | 1008.7 |
| 20260508000806 | 14 | 174 | 3.2 | 9.7 | 0.00 | 0.00 | 0.00 | 33 | 1008.7 |
| 20260508000301 | 14 | 158 | 3.2 | 8.0 | 0.00 | 0.00 | 0.00 | 33 | 1008.7 |
| 20260508000025 | 14 | 172 | 1.6 | 8.0 | 0.00 | 0.00 | 0.00 | 34 | 1008.8 |
| 20260507235520 | 14 | 168 | 1.6 | 6.4 | 0.00 | 0.00 | 0.00 | 34 | 1008.8 |
| 20260507234743 | 15 | 101 | 1.6 | 8.0 | 0.00 | 0.00 | 0.00 | 32 | 1008.8 |
| 20260507234242 | 14 | 173 | 6.4 | 11.3 | 0.00 | 0.00 | 0.00 | 32 | 1008.9 |
| 20260507234237 | 15 | 146 | 3.2 | 8.0 | 0.00 | 0.00 | 0.00 | 33 | 1008.8 |
| 20260507233232 | 14 | 123 | 4.8 | 11.3 | 0.00 | 0.00 | 0.00 | 31 | 1008.9 |
| 20260507232733 | 15 | 149 | 6.4 | 12.9 | 0.00 | 0.00 | 0.00 | 33 | 1008.9 |
| 20260507232232 | 15 | 194 | 4.8 | 12.9 | 0.00 | 0.00 | 0.00 | 33 | 1009.0 |
| 20260507231730 | 15 | 191 | 1.6 | 11.3 | 0.00 | 0.00 | 0.00 | 33 | 1009.0 |
| 20260507231232 | 14 | 163 | 3.2 | 11.3 | 0.00 | 0.00 | 0.00 | 32 | 1009.0 |
| 20260507230730 | 15 | 207 | 4.8 | 11.3 | 0.00 | 0.00 | 0.00 | 31 | 1009.1 |
| 20260507230230 | 15 | 145 | 3.2 | 11.3 | 0.00 | 0.00 | 0.00 | 33 | 1009.2 |
| 20260507225729 | 15 | 133 | 1.6 | 8.0 | 0.00 | 0.00 | 0.00 | 32 | 1009.1 |
| 20260507225228 | 16 | 105 | 0.0 | 6.4 | 0.00 | 0.00 | 0.00 | 29 | 1009.2 |
| 20260507224955 | 15 | 322 | 0.0 | 4.8 | 0.00 | 0.00 | 0.00 | 31 | 1009.3 |
| 20260507224223 | 15 | 43 | 0.0 | 4.8 | 0.00 | 0.00 | 0.00 | 31 | 1009.5 |
| 20260507223720 | 15 | 106 | 3.2 | 11.3 | 0.00 | 0.00 | 0.00 | 33 | 1009.2 |
| 20260507223222 | 15 | 174 | 6.4 | 12.9 | 0.00 | 0.00 | 0.00 | 30 | 1009.2 |
| 20260507222720 | 16 | 173 | 4.8 | 12.9 | 0.00 | 0.00 | 0.00 | 31 | 1009.2 |
| 20260507222221 | 16 | 167 | 3.2 | 11.3 | 0.00 | 0.00 | 0.00 | 31 | 1009.3 |
| 20260507221721 | 16 | 112 | 1.6 | 8.0 | 0.00 | 0.00 | 0.00 | 29 | 1009.3 |
| 20260507221222 | 16 | 165 | 1.6 | 8.0 | 0.00 | 0.00 | 0.00 | 29 | 1009.5 |
| 20260507220715 | 16 | 252 | 1.6 | 8.0 | 0.00 | 0.00 | 0.00 | 28 | 1009.5 |
| 20260507220209 | 15 | 356 | 1.6 | 8.0 | 0.00 | 0.00 | 0.00 | 29 | 1009.6 |
| 20260507215704 | 16 | 170 | 1.6 | 6.4 | 0.00 | 0.00 | 0.00 | 30 | 1009.6 |
| 20260507215204 | 15 | 47 | 3.2 | 9.7 | 0.00 | 0.00 | 0.00 | 32 | 1009.6 |